#timestamp,LO_Frequency,Hit,StdDev 
1638608415.5,286047000.2,N
1638608435.4,286047002.6,N
1638608455.2,286047002.0,N
1638608475.0,286047002.4,N
1638608475.9,286047002.4,N
1638608495.8,286047002.4,N
1638608515.6,286047002.4,N
1638608535.5,286047002.5,N
1638608555.3,286047000.1,N
1638608575.1,286047000.0,N
1638608595.9,286047000.9,N
1638608615.7,286047002.4,N
1638608635.5,286046999.9,N
1638608655.4,286047002.7,N
1638608675.2,286047002.3,N
1638608695.1,286047002.4,N
1638608696.0,286047002.4,N
1638608715.8,286047002.8,N
1638608735.6,286046999.8,N
1638608755.5,286046999.9,N
1638608775.3,286047003.7,Y
1638608795.2,286047001.9,P
1638608815.9,286047001.8,P
1638608835.7,286047004.3,P
1638608855.6,286047001.4,N
1638608875.4,286047004.4,Y
1638608895.3,286047000.3,P
1638608915.1,286047000.5,N
1638608935.8,286046998.5,N
1638608955.7,286046999.0,N
1638608975.5,286046999.3,N
1638608995.4,286046998.3,N
1638609015.2,286046998.1,N
1638609035.0,286047000.6,N
1638609035.9,286047000.6,N
1638609055.8,286047000.9,N
1638609075.6,286047001.1,N
1638609095.5,286046998.3,N
1638609115.3,286047000.7,N
1638609135.1,286046998.3,N
1638609155.9,286047001.0,N
1638609175.7,286047000.5,N
1638609195.5,286047000.0,N
1638609215.4,286047001.2,N
1638609235.2,286047000.6,N
1638609255.1,286047000.9,N
1638609256.0,286047000.9,N
1638609275.8,286046998.5,N
1638609295.6,286046998.7,N
1638609315.5,286046998.5,N
1638609335.3,286046998.3,N
1638609355.1,286046999.2,N
1638609375.9,286046998.0,N
1638609395.3,286046997.7,N
1638609415.1,286046996.7,N
1638609435.8,286046997.4,N
1638609455.7,286046997.3,N
1638609475.5,286046998.3,N
1638609495.4,286047000.7,N
1638609515.2,286046998.4,N
1638609535.0,286046998.5,N
1638609535.9,286046998.5,N
1638609555.8,286046998.5,N
1638609575.6,286047001.0,N
1638609595.4,286047000.8,N
1638609615.3,286047000.9,N
1638609635.1,286046998.3,N
1638609655.9,286047001.1,N
1638609675.7,286047001.1,N
1638609695.5,286047000.3,N
1638609715.4,286046998.4,N
1638609735.2,286046997.1,N
1638609755.0,286046997.3,N
1638609756.0,286046997.3,N
1638609775.8,286046996.5,N
1638609795.6,286046996.8,N
1638609815.5,286046998.6,N
1638609835.3,286047000.7,N
1638609855.1,286047000.1,N
1638609875.9,286047002.6,N
1638609895.7,286047002.5,N
1638609915.6,286047002.3,N
1638609935.4,286047000.2,N
1638609955.2,286046999.8,N
1638609975.1,286047000.3,N
1638609976.0,286047000.3,N
1638609995.8,286047000.3,N
1638610015.6,286047002.7,N
1638610035.5,286047003.7,N
1638610055.3,286047004.3,N
1638610075.2,286047004.0,N
1638610095.9,286047003.5,N
1638610115.7,286047001.3,N
1638610135.6,286047001.7,N
1638610155.4,286046999.7,N
1638610175.2,286047002.7,N
1638610195.1,286047004.2,N
1638610196.0,286047004.2,N
1638610215.8,286047001.9,N
1638610235.7,286047004.3,N
1638610255.5,286047003.7,N
1638610275.3,286047003.7,N
1638610295.2,286047003.4,N
1638610315.0,286047001.8,N
1638610315.9,286047001.8,N
1638610335.7,286047001.7,N
1638610355.6,286047001.3,N
1638610375.4,286047002.0,N
1638610395.3,286047002.5,N
1638610415.1,286046999.8,N
1638610435.8,286047000.4,N
1638610455.7,286047002.3,N
1638610475.5,286046999.7,N
1638610495.4,286047000.0,N
1638610515.2,286047000.2,N
1638610535.0,286047004.4,N
1638610535.9,286047004.4,N
1638610555.8,286047001.9,N
1638610575.6,286047001.6,N
1638610595.4,286047001.7,N
1638610615.3,286047001.8,N
1638610635.1,286046999.7,N
1638610655.9,286047002.5,N
1638610675.7,286047002.3,N
1638610695.5,286046999.9,N
1638610715.4,286047001.6,N
1638610735.2,286047004.2,N
1638610755.1,286047003.6,N
1638610756.0,286047003.6,N
1638610775.8,286047004.3,N
1638610795.6,286047002.1,N
1638610815.5,286047002.1,N
1638610835.3,286047002.2,N
1638610855.1,286047002.2,N
1638610875.9,286047002.3,N
1638610895.7,286047002.8,N
1638610915.6,286047002.4,N
1638610935.4,286047000.8,N
1638610955.2,286047000.7,N
1638610975.1,286047000.3,N
1638610976.0,286047000.3,N
1638610995.8,286047000.2,N
1638611015.6,286047000.0,N
1638611035.5,286047000.3,N
1638611055.3,286047000.5,N
1638611075.2,286047002.1,N
1638611095.9,286046999.9,N
1638611115.7,286047000.6,N
1638611135.6,286046999.7,N
1638611155.4,286047000.3,N
1638611175.2,286047002.7,N
1638611195.1,286046999.8,N
1638611196.0,286046999.8,N
1638611215.8,286047004.3,Y
1638611235.7,286047000.5,P
1638611255.5,286046999.7,N
1638611275.3,286047002.8,P
1638611295.2,286047002.6,N
1638611315.0,286047001.2,N
1638611315.9,286047001.2,N
1638611335.7,286047001.2,N
1638611355.6,286046998.5,N
1638611375.4,286046999.1,N
1638611395.3,286046999.3,N
1638611415.1,286046998.2,N
1638611416.0,286046998.2,N
1638611435.8,286047000.8,N
1638611455.7,286047001.0,N
1638611475.5,286046999.9,N
1638611495.3,286047000.2,N
1638611515.2,286047000.2,N
1638611535.0,286046999.8,N
1638611535.9,286046999.8,N
1638611555.8,286047000.6,N
1638611575.6,286047001.0,N
1638611595.4,286046999.9,N
1638611615.3,286047000.1,N
1638611635.1,286046998.5,N
1638611655.8,286047001.1,N
1638611675.7,286047001.1,N
1638611695.5,286046998.7,N
1638611715.4,286046999.0,N
1638611735.2,286046999.2,N
1638611755.0,286046999.0,N
1638611755.9,286046999.0,N
1638611775.8,286047001.0,N
1638611795.6,286046998.2,N
1638611815.4,286046998.6,N
1638611835.3,286046998.7,N
1638611855.1,286046998.4,N
1638611875.9,286046998.6,N
1638611895.7,286047000.9,N
1638611915.6,286047000.2,N
1638611935.4,286047000.9,N
1638611955.2,286047000.9,N
1638611975.1,286047000.9,N
1638611976.0,286047000.9,N
1638611995.8,286046998.2,N
